Вернуться в каталог

STARLINK-31833

АктивенСвязьVLEO
NORAD 59733·PAYLOAD·🇺🇸 United States

Запущен May 13, 2024 с Cape Canaveral Space Force Station

Loading…

Ближайшие Пролёты (ближайшие 24 часа)

TLE

СвежийSource: CelesTrak SupGP

Эпоха: Sep 14, 2026, 21:07 UTC

1 59733C 24090D   26257.88034722  .00011541  00000+0  41786-3 0  2575
2 59733  43.0028 195.2124 0001519 252.6042  64.2021 15.27585241    13

Отслеживайте STARLINK-31833 в реальном времени с AllMySat

Download on the App Store